Dewpoint
18 15 14 14 25 21 15 13 12 12 13 17 18 24 28 31 24 23 32 36 35 33 34 36 39 40 41 43 45 46 47 49 51 52 52 53 52 53 54 55 56 56 57 58 59 59 60 61 62 64 66 67 68 68 68 67 65 65 65 65 64 64 64 64 64 64 63 63 63 63 64 63 63 63 63 63 63 62 62 61 61 59 59 59 59 61 60
15 15 13 13 14 16 18 15 13 13 13 14 15 18 30 26 31 30 34 37 36 32 34 36 38 40 40 42 45 47 47 48 51 51 52 52 52 52 54 56 56 57 57 57 59 60 60 61 62 64 66 67 67 67 67 66 65 65 65 65 64 64 63 63 64 63 63 63 63 63 63 63 63 63 62 63 63 62 61 61 60 60 59 60 59 59 60
15 15 15 14 15 16 15 16 14 13 13 15 15 20 32 35 36 39 34 37 37 36 35 36 41 42 43 43 43 44 46 48 50 51 52 52 53 54 55 57 57 57 57 57 58 60 61 62 63 64 66 67 67 67 66 66 65 65 65 65 64 62 62 63 63 63 63 63 64 63 63 63 63 63 63 63 63 62 61 60 60 60 60 60 60 60 60
16 14 14 13 18 19 17 16 16 16 19 21 23 26 33 30 32 38 37 36 35 36 44 44 42 42 41 40 42 43 45 47 49 50 51 53 54 55 56 57 57 58 58 58 59 59 60 62 63 65 66 66 66 66 66 65 65 65 65 64 63 62 62 64 64 63 64 64 64 63 63 63 64 64 64 63 62 62 61 60 60 61 61 60 61 61 61
18 16 16 17 20 21 16 28 30 21 27 31 33 40 43 37 35 34 33 33 35 37 47 39 41 40 39 41 41 42 45 47 48 49 50 53 55 56 57 57 58 58 59 60 60 61 62 62 63 66 67 66 66 66 66 65 65 64 64 64 63 62 64 64 64 63 63 64 64 63 63 65 64 64 63 62 62 61 60 60 60 60 61 61 61 61 61
23 23 20 21 19 15 23 37 32 34 28 31 34 38 42 44 45 38 36 34 41 43 41 37 40 40 40 42 47 49 46 47 50 50 53 54 56 57 58 59 60 61 62 64 65 64 63 64 64 66 66 66 66 66 66 65 65 64 64 63 64 64 64 64 64 63 63 63 64 64 65 64 64 63 63 62 62 61 60 61 60 60 61 61 61 61 62
22 29 26 22 17 25 41 43 38 35 37 39 40 42 43 44 46 47 42 44 43 42 40 41 44 45 46 48 48 48 51 50 49 50 53 55 57 57 58 59 60 61 61 63 64 65 65 66 66 66 66 66 65 65 65 65 65 64 63 63 64 64 64 64 64 63 64 64 64 64 64 64 63 63 63 62 61 61 60 60 60 60 61 61 62 63 63
31 27 21 14 24 36 44 40 42 48 37 37 36 36 38 43 44 46 43 44 44 45 45 44 44 44 46 47 49 49 50 50 50 50 51 53 55 55 56 57 59 60 62 62 63 64 67 67 66 65 65 65 65 64 64 64 64 64 64 63 63 64 64 64 63 63 64 64 64 64 63 63 62 62 62 62 61 61 61 61 61 61 61 62 62 62 62
24 29 26 29 37 38 39 42 42 40 37 37 33 35 37 45 44 47 42 41 43 44 45 45 45 44 42 41 42 46 48 50 49 48 48 49 52 51 53 56 55 59 61 63 64 65 66 67 66 65 64 65 64 64 64 64 64 64 63 63 63 64 64 63 64 64 64 64 64 63 63 61 61 61 62 62 61 62 61 61 61 61 61 62 63 62 62
37 28 29 30 31 31 35 44 43 45 42 40 39 36 36 44 45 48 47 41 42 44 43 42 42 42 38 38 39 44 48 53 52 54 51 50 51 51 52 55 57 60 64 65 66 66 66 66 65 65 64 64 64 63 63 64 63 63 63 63 64 64 64 63 64 64 64 64 63 63 62 61 61 61 62 61 61 63 61 61 61 61 62 62 61 61 61
36 32 27 29 33 34 42 42 44 45 44 40 42 37 34 41 47 50 49 45 44 42 40 41 42 38 36 37 41 46 49 49 51 50 51 50 52 55 58 58 60 63 65 66 66 65 64 63 63 63 64 64 63 63 63 63 63 63 63 63 63 64 63 64 64 64 64 63 62 61 60 60 60 61 61 61 62 63 62 61 61 62 63 61 60 60 60
40 36 32 30 37 40 45 44 45 46 46 44 37 29 32 43 49 51 49 49 47 46 46 43 40 37 35 38 42 47 52 55 60 53 54 60 63 65 67 67 67 67 67 66 64 64 64 63 62 63 63 63 63 63 63 63 63 63 63 63 64 64 64 64 64 62 63 62 60 59 58 59 61 61 62 62 62 62 63 63 62 60 61 60 59 59 61
40 37 32 35 42 48 48 46 47 48 45 37 31 30 36 48 51 51 48 47 48 48 46 45 43 46 44 46 49 55 58 59 60 62 63 64 66 68 68 68 69 67 65 65 64 64 63 62 62 62 63 63 63 63 63 63 62 62 63 64 64 64 63 64 64 63 62 60 60 60 61 62 63 63 63 63 62 62 62 61 60 59 60 60 60 59 58
38 37 32 32 37 44 46 46 47 49 39 34 35 41 47 50 51 52 50 50 50 50 50 50 51 53 55 57 56 56 56 57 59 60 64 67 68 69 69 68 67 66 65 64 63 63 62 61 62 62 62 62 62 62 62 62 62 62 62 63 63 63 63 63 63 62 61 62 63 63 64 64 63 63 63 63 63 62 62 60 59 59 59 59 57 57 57
41 39 34 31 32 41 47 47 49 50 39 40 45 50 52 53 52 53 53 52 52 51 51 52 53 53 54 55 56 58 60 59 60 61 62 64 65 66 66 67 67 66 65 63 62 62 62 61 62 62 62 62 62 61 61 60 62 62 62 63 63 63 63 63 62 62 62 64 64 64 64 64 63 63 63 62 61 61 61 60 59 58 57 58 57 57 57
37 37 32 30 36 44 48 49 47 50 51 51 53 51 50 52 53 53 54 55 56 55 53 53 54 55 56 56 57 58 60 61 62 62 62 63 63 64 65 66 66 66 64 63 62 62 62 61 61 61 62 62 61 60 59 61 62 63 62 62 61 62 63 63 64 64 64 65 65 65 65 64 64 63 62 61 61 60 60 60 58 57 56 57 57 56 57
42 41 44 46 50 51 48 49 49 50 50 50 50 49 49 48 50 52 51 53 55 57 57 57 57 57 58 60 62 62 62 63 63 62 62 62 63 63 63 64 65 65 64 63 62 62 61 61 60 60 61 61 62 60 60 62 62 61 61 61 61 61 61 62 64 65 65 65 65 65 64 64 63 62 61 60 60 59 59 58 57 57 56 57 57 57 56
49 48 49 54 52 48 48 47 48 47 47 48 47 46 46 47 48 49 48 49 52 56 58 57 58 59 59 59 61 62 63 62 62 61 61 61 61 62 63 63 64 63 64 63 62 62 61 61 61 62 61 61 62 60 61 62 61 61 61 61 61 60 60 61 63 64 64 64 64 64 63 63 62 62 61 60 59 58 58 58 58 57 56 57 57 56 55
41 41 46 50 49 51 50 49 49 48 47 47 48 48 48 48 48 48 48 47 49 51 56 60 58 58 59 59 60 61 62 62 62 61 61 61 61 62 62 63 64 63 63 62 62 62 61 62 61 61 61 61 62 62 61 61 61 61 61 60 61 61 60 62 64 64 63 63 62 62 61 61 61 61 59 60 58 59 58 58 57 56 56 57 57 56 56
41 46 48 54 55 53 54 51 48 48 49 48 49 50 51 51 51 49 49 49 49 49 48 54 57 59 61 61 60 60 61 61 62 61 61 61 61 61 62 63 63 63 63 62 62 62 62 62 62 62 62 62 63 64 65 62 61 61 61 61 61 62 63 63 63 63 63 66 63 61 61 60 60 59 59 59 58 58 58 58 57 56 57 57 57 57 56
50 50 51 54 51 52 52 52 50 51 48 48 47 48 49 50 50 52 53 52 51 51 51 53 52 49 50 60 60 60 61 62 62 61 61 60 61 61 62 63 63 63 62 63 62 62 62 62 62 62 62 63 65 65 65 65 64 63 64 65 64 63 63 63 63 64 62 64 61 60 57 53 50 48 51 54 55 50 49 49 51 56 56 55 56 54 56
45 45 47 48 44 46 51 50 49 50 48 49 49 48 47 47 47 47 44 46 47 46 47 48 46 50 50 49 56 59 60 61 61 61 61 61 60 60 60 61 61 61 62 62 62 61 61 61 62 63 63 64 65 65 65 64 64 64 64 64 63 62 61 61 61 62 62 61 60 58 55 52 51 49 47 43 45 52 50 48 45 43 50 53 53 50 47
43 48 50 51 48 49 47 46 47 51 45 44 44 45 46 46 46 43 41 40 41 42 44 46 46 46 47 47 54 58 60 60 61 62 62 61 61 60 61 60 60 60 61 62 61 60 60 61 62 62 63 65 65 65 64 64 63 62 62 62 62 62 62 61 62 62 61 59 58 56 55 54 53 52 49 47 41 42 45 45 43 41 43 45 47 48 50
49 49 49 49 43 41 44 45 46 47 47 45 45 45 44 44 43 42 42 43 42 43 44 44 46 47 48 48 50 54 57 59 60 60 61 60 60 61 61 61 60 60 61 60 60 60 60 61 61 62 63 63 64 64 63 63 63 62 62 62 62 62 62 62 62 62 61 59 57 55 54 54 53 52 51 50 49 43 41 41 40 40 40 41 41 43 45
51 48 42 42 42 43 44 45 46 47 49 47 47 48 45 43 43 43 42 43 43 43 44 45 46 49 49 49 51 54 58 59 61 62 62 62 61 61 62 61 60 61 61 61 60 59 59 60 60 61 62 62 63 63 62 62 63 63 62 63 63 63 63 63 63 64 61 59 57 55 55 54 54 53 52 51 50 48 47 40 39 39 39 39 39 40 40
43 42 43 44 45 45 46 43 44 45 45 45 44 45 50 55 48 44 43 43 43 44 45 46 47 47 50 50 50 51 52 57 63 64 61 61 61 61 62 62 61 60 60 59 58 58 58 58 59 60 61 60 61 62 63 63 63 63 64 64 63 63 63 63 63 63 61 58 56 55 55 54 54 53 54 53 51 50 49 48 47 44 41 39 39 39 38
42 43 41 41 41 42 44 42 43 45 44 44 44 45 45 45 50 46 44 44 44 45 46 48 49 49 48 49 50 49 50 51 53 58 60 60 61 62 62 62 61 60 60 60 58 58 58 58 58 58 58 59 60 61 62 63 63 62 61 60 60 65 66 65 62 61 60 58 56 55 55 54 55 56 54 54 53 52 51 50 49 47 46 47 43 39 44
43 44 42 40 41 41 43 44 44 43 43 44 43 42 42 43 43 43 42 43 44 45 45 47 48 47 46 47 46 45 45 46 48 49 51 53 59 61 61 61 61 60 60 59 59 60 61 60 58 58 57 58 60 60 61 61 60 60 60 61 62 64 64 64 62 60 60 59 57 56 55 55 55 55 56 55 54 54 51 53 51 49 48 46 47 47 40
43 44 44 44 43 44 44 44 44 43 43 43 44 43 42 42 43 44 43 43 45 45 45 45 47 49 48 46 46 45 46 45 47 48 48 51 58 60 60 61 61 62 60 60 60 60 60 59 57 57 57 59 59 59 59 59 59 60 61 62 62 61 60 59 59 59 59 59 58 58 58 57 57 56 56 56 55 54 53 52 52 49 47 48 49 50 50
44 44 44 44 44 43 42 43 44 43 43 44 43 43 43 43 43 43 44 44 44 45 46 46 45 46 47 46 46 46 46 46 47 47 48 52 58 58 59 60 60 59 58 59 60 60 59 58 56 57 58 59 59 58 58 58 59 59 60 60 59 59 58 58 58 58 58 58 58 60 59 58 57 57 57 56 55 54 54 53 52 50 48 49 50 49 49
43 44 43 43 43 44 43 44 44 44 44 44 43 43 44 44 43 44 44 45 46 46 47 46 47 47 47 47 47 48 48 47 47 47 51 56 58 58 59 59 60 59 59 58 57 58 58 57 58 59 59 59 59 58 59 58 59 59 60 59 59 59 59 59 59 59 59 59 59 58 58 58 57 58 57 56 56 55 54 53 52 51 50 49 50 50 51
40 41 42 43 43 43 43 44 43 43 44 44 43 43 44 44 44 44 45 46 47 48 48 48 48 48 48 49 50 49 48 49 49 49 53 55 57 57 57 58 58 62 57 58 59 59 58 58 57 58 58 59 59 59 59 59 59 59 59 62 59 59 59 59 59 59 60 61 58 57 58 57 57 58 59 57 56 55 54 54 52 51 50 50 50 50 50
39 39 39 40 42 41 41 42 43 42 43 43 44 45 46 47 46 47 47 50 49 50 48 49 49 49 50 50 49 50 50 50 51 51 52 53 55 56 56 56 56 57 57 58 58 58 58 58 58 58 58 58 58 59 59 59 59 59 60 60 59 60 61 59 58 59 60 59 57 56 56 56 56 57 57 57 56 56 54 54 53 52 51 50 49 47 47
42 42 42 43 42 41 41 42 43 44 44 45 45 45 46 46 47 47 50 52 48 48 48 48 49 51 51 51 51 51 51 51 51 53 53 54 55 55 56 57 56 56 57 56 57 57 58 58 58 59 59 59 59 60 60 59 58 58 58 58 59 58 58 57 58 59 58 57 56 57 56 57 55 55 56 56 55 55 55 54 54 53 51 49 46 47 45
46 46 46 46 46 47 47 45 45 46 46 45 45 45 47 47 47 49 53 51 48 48 49 49 51 53 52 52 51 51 51 51 52 53 55 55 54 54 55 56 56 56 56 56 56 56 58 59 59 59 58 59 60 60 59 58 57 57 57 58 59 57 57 57 57 57 57 56 56 54 54 54 54 57 57 55 55 55 55 55 54 53 50 49 46 47 45
48 47 47 47 48 48 46 47 47 48 47 46 46 47 48 48 50 49 49 49 49 50 49 50 53 54 53 53 52 52 51 52 53 54 54 54 54 55 56 56 55 55 55 54 55 56 56 57 62 62 58 58 58 59 59 58 57 57 57 57 58 58 58 58 57 57 56 56 55 55 54 56 56 56 57 54 53 53 53 53 53 52 50 48 48 47 46
49 49 48 48 48 48 47 48 48 48 48 47 48 48 49 49 50 50 52 50 50 51 51 53 54 54 54 53 53 53 53 53 54 55 53 53 54 53 53 54 55 56 56 55 56 58 59 59 62 61 61 59 59 59 60 60 57 57 58 57 57 57 57 56 56 55 54 54 54 54 54 55 53 54 56 53 53 52 52 52 53 50 49 49 48 47 47
49 49 50 49 49 49 49 49 50 50 50 50 50 50 51 51 51 51 51 51 52 52 53 54 54 54 54 54 53 53 53 53 54 54 53 54 53 53 53 53 54 55 55 55 58 59 59 60 60 59 58 58 59 60 61 61 60 57 56 56 56 57 57 56 55 54 54 53 55 53 54 53 52 52 53 52 52 53 53 52 52 50 49 48 47 46 46
49 50 50 50 50 50 50 51 51 51 52 51 51 51 52 53 53 53 53 53 53 54 55 55 54 54 53 53 54 54 53 54 55 54 54 54 55 53 53 53 53 54 54 55 57 59 60 59 59 58 58 58 59 59 61 60 60 55 55 55 56 56 56 56 55 55 54 54 53 52 51 51 51 51 51 51 51 52 54 53 52 51 48 47 46 45 45
50 50 50 51 50 51 51 51 51 51 52 52 51 51 52 53 53 53 52 53 53 55 55 54 53 53 54 54 54 53 54 55 54 53 53 53 52 51 53 54 56 57 59 60 59 60 60 60 58 56 56 56 57 58 60 59 59 56 55 54 55 55 55 55 54 54 53 52 53 55 51 51 51 51 50 50 50 50 50 52 52 50 48 47 45 44 46
50 50 51 50 51 51 51 50 50 50 51 51 51 51 52 52 52 51 53 53 54 54 54 53 53 54 54 54 53 52 53 55 55 54 54 53 52 52 53 53 55 56 58 58 59 59 59 58 57 55 55 56 57 60 58 58 52 51 53 53 54 54 54 53 54 54 53 53 54 53 52 52 51 51 50 49 49 49 50 50 50 49 48 46 44 44 45
51 51 50 51 50 51 51 50 51 51 51 51 52 53 52 53 53 52 53 54 55 55 53 53 57 55 54 53 53 53 53 54 55 56 56 54 53 52 52 52 55 56 60 59 59 58 58 57 57 58 55 55 57 57 54 51 45 46 48 51 54 55 55 55 53 52 53 52 50 50 50 50 49 49 49 50 48 48 48 49 48 48 47 47 45 44 44
51 50 50 50 50 51 51 51 51 51 52 52 53 53 53 53 52 52 54 55 56 55 54 52 54 54 53 52 51 52 52 53 53 53 53 54 55 54 52 52 54 55 58 58 57 55 55 54 54 54 57 55 55 54 51 45 45 45 45 46 48 47 48 46 46 47 46 46 46 47 47 48 48 47 48 48 48 47 47 48 48 48 48 46 45 45 45
50 50 49 50 51 52 52 51 51 51 51 52 52 52 52 52 52 52 54 55 55 54 53 52 52 52 53 52 52 51 51 52 51 51 51 51 53 53 54 54 54 56 59 58 55 54 54 54 52 55 56 55 53 52 46 43 43 44 44 45 45 45 45 44 44 43 43 44 44 42 44 49 47 48 47 48 47 46 45 45 45 46 47 46 45 45 45
50 49 49 50 51 51 49 50 50 50 51 52 51 51 51 51 51 51 53 53 54 55 55 54 53 53 52 52 51 52 52 52 52 52 51 51 51 52 53 58 56 57 58 57 53 53 52 51 55 57 57 54 53 51 43 43 43 44 44 44 45 45 44 43 44 44 44 43 44 44 45 45 45 46 46 46 48 46 45 45 43 43 45 44 44 44 43
50 50 49 54 50 49 49 50 51 51 51 50 49 50 52 51 51 51 51 52 53 54 54 54 53 53 53 53 53 53 52 53 54 54 54 54 52 52 54 58 57 58 57 56 53 51 51 57 56 56 56 53 52 47 45 48 47 44 43 44 45 46 44 44 44 44 43 44 44 44 43 43 42 42 44 45 46 46 46 47 46 43 42 42 42 42 42
50 50 49 49 49 49 50 50 51 50 49 48 49 50 52 52 53 52 52 51 51 53 53 53 53 54 53 52 52 51 51 50 50 51 53 53 55 57 58 58 58 57 56 53 52 51 52 53 53 55 54 51 52 43 43 42 41 42 42 43 44 43 43 42 41 42 42 42 44 48 50 48 43 40 44 45 45 46 46 46 45 43 41 42 41 44 45
49 49 48 49 49 49 49 48 48 47 47 47 48 50 50 51 51 52 52 51 52 52 52 52 52 52 52 53 52 53 52 52 49 50 50 53 54 55 55 54 54 56 55 55 54 54 55 54 54 55 54 51 49 42 43 42 42 43 42 43 41 41 41 40 40 40 41 41 41 40 40 38 39 41 43 41 40 42 44 45 44 42 40 40 41 41 41
48 49 50 50 49 50 48 48 48 49 46 48 50 49 49 50 51 50 50 51 51 50 50 51 51 52 51 54 55 53 54 54 50 50 51 52 53 53 53 57 57 56 54 51 50 49 53 51 52 52 52 52 41 42 42 43 45 46 45 43 42 42 40 38 37 38 39 40 41 42 41 41 39 39 39 42 43 42 43 42 42 41 41 42 42 43 43
49 49 49 49 48 47 47 46 47 46 46 49 48 49 49 50 50 49 49 50 50 54 52 50 49 49 50 51 50 52 52 53 55 54 53 53 52 51 54 54 54 56 54 51 49 48 53 52 51 51 51 45 42 44 44 44 45 46 44 46 44 42 45 41 43 43 40 43 42 42 41 41 39 42 45 44 42 43 42 42 42 43 45 44 43 42 42
48 48 47 51 51 50 49 48 48 48 47 48 49 50 51 51 51 52 51 51 51 51 51 50 50 48 48 49 50 51 52 52 54 57 53 52 52 55 56 54 54 56 53 52 50 49 47 47 46 49 50 46 42 44 45 45 44 45 49 45 46 45 44 42 42 41 40 42 42 42 42 41 41 41 40 40 42 42 43 44 43 43 43 42 42 42 41
47 47 48 49 49 50 51 50 49 49 50 50 50 50 50 50 52 51 51 57 52 50 49 48 49 48 46 48 51 51 50 51 53 53 56 53 53 52 55 57 53 55 53 51 49 47 46 47 49 50 51 46 43 44 48 50 46 44 45 47 47 45 46 45 44 42 42 44 43 42 43 41 40 40 40 39 41 41 42 43 42 42 43 41 41 41 40